Location: Unspecified
(35.7250°N, 0.0000°E)
Time: 00:09:17
(UTC+00:00)

Vanguard 1 - Pass Details

Date: 29 June 2019
Orbit: 653 x 3830 km, 34.3° (Epoch: 20 July)

Event Time Altitude Azimuth Distance (km) Brightness Sun altitude
Rises 22:53:22 0° 222° (SW) 7,567 14.3 -28.8°
Reaches altitude 10° 22:58:27 10° 218° (SW) 6,749 14.0 -29.1°
Maximum altitude 23:20:41 54° 149° (SSE) 4,163 12.7 -30.2°
Drops below altitude 10° 23:38:25 10° 79° (E) 5,567 13.9 -30.8°
Sets 23:42:04 0° 75° (ENE) 6,232 14.3 -30.9°
